Weather History for Tallahassee, FL

Change the Weather History Date:

Monday, August 4, 2014

  Actual Average Record
Temperature  
Mean Temperature 85 °F 82 °F  
Max Temperature 96 °F 92 °F 102 °F (1931)
Min Temperature 74 °F 72 °F 61 °F (1896)
Degree Days  
Heating Degree Days 0    
Month to date heating degree days 0  
Since 1 June heating degree days 0  
Since 1 July heating degree days 0  
Cooling Degree Days 20    
Month to date cooling degree days 76  
Year to date cooling degree days 1631  
Since 1 June cooling degree days 1142  
Growing Degree Days 34 (Base 50)    
Moisture  
Dew Point 71 °F    
Average Humidity 69    
Maximum Humidity 93    
Minimum Humidity 44    
Precipitation  
Precipitation 0.02 in 0.26 in 2.33 in (2000)
Month to date precipitation 0.02 1.06  
Year to date precipitation 38.84 37.62  
Sea Level Pressure  
Sea Level Pressure 29.97 in    
Wind  
Wind Speed 6 mph (NNW)    
Max Wind Speed 24 mph    
Max Gust Speed 31 mph    
Visibility 10 miles    
Events Rain , Thunderstorm    
T = Trace of Precipitation, MM = Missing Value Source: NWS Daily Summary

Daily Weather History Graph

Daily Weather History Graph

Search for Another Location

Airport:

Trip Planner

Search our weather history database for the weather conditions in past years. The results will help you decide how hot, cold, wet, or windy it might be!

Date:

Astronomy

Aug. 04, 2014 Rise Set
Actual Time 6:57 AM EDT 8:29 PM EDT
Civil Twilight 6:31 AM EDT 8:54 PM EDT
Nautical Twilight 6:00 AM EDT 9:25 PM EDT
Astronomical Twilight 5:28 AM EDT 9:58 PM EDT
Moon 2:41 PM EDT (8/4) 1:00 AM EDT (8/4)
Length of Visible Light 14h 23m
Length of Day
13h 31m
First Quarter, 57% of the Moon is Illuminated
Aug 4
First Quarter
Aug 10
Full
Aug 17
Last Quarter
Aug 25
New
Sep 2
First Quarter

Hourly Weather History & Observations

Time (EDT) Temp. Heat Index Dew Point Humidity Pressure Visibility Wind Dir Wind Speed Gust Speed Precip Events Conditions
12:53 AM 78.8 °F - 73.4 °F 83% 29.99 in 10.0 mi NNE 3.5 mph - N/A   Clear
1:19 AM 78.8 °F - 73.4 °F 83% 29.99 in 10.0 mi Calm Calm - N/A   Mostly Cloudy
1:27 AM 78.8 °F - 73.4 °F 83% 29.99 in 10.0 mi Calm Calm - N/A   Mostly Cloudy
1:53 AM 78.1 °F - 73.0 °F 84% 29.98 in 10.0 mi Calm Calm - N/A   Partly Cloudy
2:53 AM 77.0 °F - 73.0 °F 88% 29.96 in 10.0 mi Calm Calm - N/A   Clear
3:53 AM 75.0 °F - 72.0 °F 90% 29.94 in 10.0 mi Calm Calm - N/A   Clear
5:53 AM 73.9 °F - 71.1 °F 91% 29.95 in 10.0 mi NNW 3.5 mph - N/A   Clear
6:53 AM 73.9 °F - 71.1 °F 91% 29.97 in 10.0 mi NNW 5.8 mph - N/A   Partly Cloudy
7:53 AM 75.9 °F - 72.0 °F 87% 29.99 in 10.0 mi North 3.5 mph - N/A   Partly Cloudy
8:53 AM 80.1 °F 84.2 °F 73.0 °F 79% 30.01 in 10.0 mi NE 4.6 mph - N/A   Scattered Clouds
9:53 AM 82.9 °F 88.0 °F 72.0 °F 69% 30.01 in 10.0 mi Variable 5.8 mph - N/A   Scattered Clouds
10:53 AM 86.0 °F 91.5 °F 71.1 °F 61% 30.00 in 10.0 mi NNE 9.2 mph - N/A   Mostly Cloudy
11:53 AM 89.1 °F 94.1 °F 70.0 °F 53% 30.00 in 10.0 mi NE 8.1 mph - N/A   Mostly Cloudy
12:53 PM 90.0 °F 95.4 °F 70.0 °F 52% 29.99 in 10.0 mi NNW 11.5 mph - N/A   Mostly Cloudy
1:53 PM 93.9 °F 98.6 °F 68.0 °F 43% 29.96 in 10.0 mi North 10.4 mph - N/A   Mostly Cloudy
2:53 PM 91.9 °F 95.9 °F 68.0 °F 45% 29.94 in 10.0 mi North 10.4 mph - N/A   Mostly Cloudy
3:53 PM 93.0 °F 97.4 °F 68.0 °F 44% 29.92 in 10.0 mi NNE 9.2 mph - N/A   Mostly Cloudy
4:53 PM 93.0 °F 97.4 °F 68.0 °F 44% 29.92 in 10.0 mi ENE 8.1 mph - N/A   Mostly Cloudy
5:53 PM 91.0 °F 95.2 °F 68.0 °F 47% 29.91 in 10.0 mi ENE 8.1 mph - N/A   Mostly Cloudy
6:53 PM 88.0 °F 92.1 °F 69.1 °F 53% 29.94 in 10.0 mi NW 3.5 mph - N/A Thunderstorm Thunderstorm
7:46 PM 80.6 °F 85.4 °F 73.4 °F 79% 29.96 in 10.0 mi SW 4.6 mph - 0.01 in Rain Light Rain
7:53 PM 80.1 °F 84.5 °F 73.9 °F 81% 29.96 in 10.0 mi SW 3.5 mph - 0.01 in Rain Light Rain
8:53 PM 78.1 °F - 73.0 °F 84% 29.96 in 10.0 mi West 3.5 mph - 0.01 in Rain Light Rain
9:53 PM 78.1 °F - 73.0 °F 84% 29.97 in 10.0 mi WNW 4.6 mph - N/A   Mostly Cloudy
10:53 PM 77.0 °F - 72.0 °F 84% 29.99 in 10.0 mi WNW 4.6 mph - N/A   Mostly Cloudy
11:53 PM 77.0 °F - 72.0 °F 84% 30.00 in 10.0 mi NW 3.5 mph - N/A   Clear